Global-16

operational
NORAD ID: 49950 Int'l Des: 2021-120 Owner: BSKG Country: US
LEOCIRCULAR

Global-16について

説明を読み込み中...

リアルタイム位置

3D地球を読み込み中...

次回通過

高度履歴

Altitude vs Time

uPlot chart will show altitude changes over time

軌道要素

1 49950U 21120B 26061.10812951 .00027533 00000-0 57436-3 0 9993
2 49950 41.9970 326.6949 0009392 219.1922 140.8240 15.44929333238259
Epoch: Mar 2, 2026 • Age: 29 hours

現在のステータス

高度 435.4 km
速度 7.65 km/s
衛星直下点 3.24°N, 87.93°E
打ち上げ日 Dec 9, 2021
運用期間 4.2 years
タイプ earth observation

技術仕様

分類 Payload
質量 55.00 kg
乾燥質量 50.00 kg
総質量 55.00 kg
長さ 1.00 m
直径 0.50 m
スパン 1.00 m
形状 Box
製造者 LEOSTL
バスタイプ BSky
フェーズステータス In Orbit
所有者/国 BSKG/US

大規模コンステレーション

Loading constellations...